203P/Korlevic (2020)

Japanese version
Home page
Updated on April 27, 2021

---------------------------------------------------------------------

* Profile

* Pictures

* Orbital Elements

Epoch 2020 Mar. 12.0 TT = JDT 2458920.5
T 2020 Mar. 5.04474 TT                                  Rudenko
q   3.1997776            (2000.0)            P               Q
n   0.09762996     Peri.  154.87776     +0.08267467     -0.99538923
a   4.6710441      Node   290.34911     +0.90535821     +0.09541405
e   0.3149759      Incl.    2.97328     +0.41652301     -0.00982039
P  10.1
From 1126 observations 2000 Feb. 22-2021 Mar. 12, mean residual 0".8.
     Nongravitational parameters A1 = +7.28, A2 = +2.4135.

* Finding Charts

* Magnitudes Graph

        m1 = 3.5 + 5 log d + 24.0 log r(t - 40)

---------------------------------------------------------------------

The orbital elements are published on M.P.E.C. 2021-F20.
The charts are made with StellaNavigator Ver.10 (AstroArts).
The magnitudes graphs are made with Comet for Windows.

---------------------------------------------------------------------

Copyright(C) Seiichi Yoshida (comet@aerith.net). All rights reserved.